Time,TemperatureF,DewpointF,PressureIn,WindDirection,WindDirectionDegrees,WindSpeedMPH,WindSpeedGustMPH,Humidity,HourlyPrecipIn,Conditions,Clouds,dailyrainin,SoftwareType,DateUTC
2013-03-04 00:01:00,21.0,12.0,29.92,NNW,328,7.0,17.0,69,0.00,,,0.00,,2013-03-04 05:01:00,
2013-03-04 00:11:00,21.0,12.0,29.92,NNW,328,7.0,17.0,69,0.00,,,0.00,,2013-03-04 05:11:00,
2013-03-04 00:22:00,21.0,12.0,29.92,NW,319,10.0,16.0,68,0.00,,,0.00,,2013-03-04 05:22:00,
2013-03-04 00:32:00,21.0,12.0,29.92,NW,321,11.0,15.0,69,0.00,,,0.00,,2013-03-04 05:32:00,
2013-03-04 00:42:00,21.0,12.0,29.92,NW,321,11.0,15.0,69,0.00,,,0.00,,2013-03-04 05:42:00,
2013-03-04 00:52:00,21.0,13.0,29.92,NW,310,8.0,11.0,70,0.00,,,0.00,,2013-03-04 05:52:00,
2013-03-04 01:02:00,21.0,12.0,29.93,NW,323,12.0,16.0,69,0.00,,,0.00,,2013-03-04 06:02:00,
2013-03-04 01:11:00,21.0,12.0,29.93,NW,323,12.0,16.0,69,0.00,,,0.00,,2013-03-04 06:11:00,
2013-03-04 01:22:00,21.0,11.0,29.93,NW,325,11.0,16.0,66,0.00,,,0.00,,2013-03-04 06:22:00,
2013-03-04 01:32:00,21.0,12.0,29.93,WNW,297,10.0,15.0,67,0.00,,,0.00,,2013-03-04 06:32:00,
2013-03-04 01:42:00,21.0,12.0,29.93,WNW,297,10.0,15.0,67,0.00,,,0.00,,2013-03-04 06:42:00,
2013-03-04 01:52:00,21.0,11.0,29.93,NW,307,14.0,17.0,66,0.00,,,0.00,,2013-03-04 06:52:00,
2013-03-04 02:02:00,21.0,12.0,29.94,WNW,298,7.0,13.0,68,0.00,,,0.00,,2013-03-04 07:02:00,
2013-03-04 02:11:00,21.0,12.0,29.94,WNW,298,7.0,13.0,68,0.00,,,0.00,,2013-03-04 07:11:00,
2013-03-04 02:22:00,21.0,11.0,29.94,NW,320,8.0,16.0,66,0.00,,,0.00,,2013-03-04 07:22:00,
2013-03-04 02:32:00,21.0,12.0,29.94,NNW,332,14.0,25.0,67,0.00,,,0.00,,2013-03-04 07:32:00,
2013-03-04 02:42:00,21.0,12.0,29.94,NNW,332,14.0,25.0,67,0.00,,,0.00,,2013-03-04 07:42:00,
2013-03-04 02:52:00,20.0,11.0,29.94,NNW,327,8.0,18.0,68,0.00,,,0.00,,2013-03-04 07:52:00,
2013-03-04 03:02:00,20.0,11.0,29.95,NNW,332,12.0,18.0,69,0.00,,,0.00,,2013-03-04 08:02:00,
2013-03-04 03:12:00,20.0,11.0,29.95,NNW,332,12.0,18.0,69,0.00,,,0.00,,2013-03-04 08:12:00,
2013-03-04 03:22:00,20.0,11.0,29.94,NNW,334,10.0,18.0,69,0.00,,,0.00,,2013-03-04 08:22:00,
2013-03-04 03:32:00,20.0,12.0,29.95,NNW,330,10.0,17.0,70,0.00,,,0.00,,2013-03-04 08:32:00,
2013-03-04 03:42:00,20.0,12.0,29.95,NNW,330,10.0,17.0,70,0.00,,,0.00,,2013-03-04 08:42:00,
2013-03-04 03:52:00,20.0,11.0,29.95,NNW,327,9.0,15.0,69,0.00,,,0.00,,2013-03-04 08:52:00,
2013-03-04 04:02:00,20.0,11.0,29.95,NW,325,12.0,18.0,69,0.00,,,0.00,,2013-03-04 09:02:00,
2013-03-04 04:11:00,20.0,11.0,29.95,NW,325,12.0,18.0,69,0.00,,,0.00,,2013-03-04 09:11:00,
2013-03-04 04:22:00,20.0,11.0,29.96,NNW,333,13.0,23.0,68,0.00,,,0.00,,2013-03-04 09:22:00,
2013-03-04 04:32:00,20.0,12.0,29.96,NNW,333,14.0,24.0,70,0.00,,,0.00,,2013-03-04 09:32:00,
2013-03-04 04:42:00,20.0,12.0,29.96,NNW,333,14.0,24.0,70,0.00,,,0.00,,2013-03-04 09:42:00,
2013-03-04 04:52:00,20.0,11.0,29.96,NW,315,13.0,20.0,69,0.00,,,0.00,,2013-03-04 09:52:00,
2013-03-04 05:01:00,20.0,11.0,29.96,NW,326,11.0,20.0,69,0.00,,,0.00,,2013-03-04 10:01:00,
2013-03-04 05:12:00,20.0,11.0,29.96,NW,326,11.0,20.0,69,0.00,,,0.00,,2013-03-04 10:12:00,
2013-03-04 05:22:00,20.0,12.0,29.97,NW,324,11.0,15.0,70,0.00,,,0.00,,2013-03-04 10:22:00,
2013-03-04 05:32:00,20.0,12.0,29.98,NW,318,10.0,18.0,70,0.00,,,0.00,,2013-03-04 10:32:00,
2013-03-04 05:42:00,20.0,12.0,29.98,NW,318,10.0,18.0,70,0.00,,,0.00,,2013-03-04 10:42:00,
2013-03-04 05:52:00,20.0,11.0,29.98,NW,316,14.0,21.0,69,0.00,,,0.00,,2013-03-04 10:52:00,
2013-03-04 06:02:00,20.0,12.0,29.99,NW,321,13.0,18.0,70,0.00,,,0.00,,2013-03-04 11:02:00,
2013-03-04 06:11:00,20.0,12.0,29.99,NW,321,13.0,18.0,70,0.00,,,0.00,,2013-03-04 11:11:00,
2013-03-04 06:22:00,19.0,11.0,29.99,NW,325,11.0,16.0,70,0.00,,,0.00,,2013-03-04 11:22:00,
2013-03-04 06:32:00,19.0,11.0,30.00,WNW,302,7.0,14.0,71,0.00,,,0.00,,2013-03-04 11:32:00,
2013-03-04 06:42:00,19.0,11.0,30.00,WNW,302,7.0,14.0,71,0.00,,,0.00,,2013-03-04 11:42:00,
2013-03-04 06:52:00,19.0,11.0,30.00,NW,314,9.0,12.0,71,0.00,,,0.00,,2013-03-04 11:52:00,
2013-03-04 07:02:00,19.0,11.0,30.01,NW,306,6.0,11.0,71,0.00,,,0.00,,2013-03-04 12:02:00,
2013-03-04 07:11:00,19.0,11.0,30.01,NW,306,6.0,11.0,71,0.00,,,0.00,,2013-03-04 12:11:00,
2013-03-04 07:22:00,19.0,11.0,30.01,NW,318,8.0,12.0,71,0.00,,,0.00,,2013-03-04 12:22:00,
2013-03-04 07:32:00,19.0,11.0,30.01,NW,309,5.0,8.0,71,0.00,,,0.00,,2013-03-04 12:32:00,
2013-03-04 07:42:00,19.0,11.0,30.01,NW,309,5.0,8.0,71,0.00,,,0.00,,2013-03-04 12:42:00,
2013-03-04 07:53:00,19.0,11.0,30.02,WNW,303,3.0,9.0,71,0.00,,,0.00,,2013-03-04 12:53:00,
2013-03-04 08:02:00,19.0,11.0,30.03,NNW,327,4.0,8.0,71,0.00,,,0.00,,2013-03-04 13:02:00,
2013-03-04 08:11:00,19.0,11.0,30.03,NNW,327,4.0,8.0,71,0.00,,,0.00,,2013-03-04 13:11:00,
2013-03-04 08:22:00,20.0,11.0,30.03,NW,326,7.0,13.0,69,0.00,,,0.00,,2013-03-04 13:22:00,
2013-03-04 08:32:00,21.0,12.0,30.03,NW,322,6.0,9.0,68,0.00,,,0.00,,2013-03-04 13:32:00,
2013-03-04 08:42:00,21.0,12.0,30.03,NW,322,6.0,9.0,68,0.00,,,0.00,,2013-03-04 13:42:00,
2013-03-04 08:52:00,21.0,12.0,30.04,WNW,285,8.0,13.0,68,0.00,,,0.00,,2013-03-04 13:52:00,
2013-03-04 09:01:00,21.0,11.0,30.04,WNW,302,12.0,16.0,65,0.00,,,0.00,,2013-03-04 14:01:00,
2013-03-04 09:12:00,21.0,11.0,30.04,WNW,302,12.0,16.0,65,0.00,,,0.00,,2013-03-04 14:12:00,
2013-03-04 09:22:00,22.0,13.0,30.04,NW,318,8.0,14.0,67,0.00,,,0.00,,2013-03-04 14:22:00,
2013-03-04 09:32:00,22.0,12.0,30.04,NW,307,9.0,15.0,66,0.00,,,0.00,,2013-03-04 14:32:00,
2013-03-04 09:42:00,22.0,12.0,30.04,NW,307,9.0,15.0,66,0.00,,,0.00,,2013-03-04 14:42:00,
2013-03-04 09:52:00,23.0,13.0,30.04,WNW,301,10.0,16.0,64,0.00,,,0.00,,2013-03-04 14:52:00,
2013-03-04 10:02:00,23.0,12.0,30.04,WNW,289,13.0,18.0,62,0.00,,,0.00,,2013-03-04 15:02:00,
2013-03-04 10:11:00,23.0,12.0,30.04,WNW,289,13.0,18.0,62,0.00,,,0.00,,2013-03-04 15:11:00,
2013-03-04 10:22:00,24.0,12.0,30.05,WNW,302,14.0,19.0,60,0.00,,,0.00,,2013-03-04 15:22:00,
2013-03-04 10:32:00,24.0,13.0,30.04,NW,318,12.0,19.0,61,0.00,,,0.00,,2013-03-04 15:32:00,
2013-03-04 10:42:00,24.0,13.0,30.04,NW,318,12.0,19.0,61,0.00,,,0.00,,2013-03-04 15:42:00,
2013-03-04 10:52:00,25.0,14.0,30.04,WNW,302,8.0,16.0,62,0.00,,,0.00,,2013-03-04 15:52:00,
2013-03-04 11:03:00,25.0,13.0,30.03,West,277,11.0,18.0,59,0.00,,,0.00,,2013-03-04 16:03:00,
2013-03-04 11:11:00,25.0,13.0,30.03,West,277,11.0,18.0,59,0.00,,,0.00,,2013-03-04 16:11:00,
2013-03-04 11:21:00,26.0,13.0,30.03,WSW,245,13.0,18.0,57,0.00,,,0.00,,2013-03-04 16:21:00,
2013-03-04 11:32:00,27.0,15.0,30.03,NW,306,11.0,16.0,60,0.00,,,0.00,,2013-03-04 16:32:00,
2013-03-04 11:42:00,27.0,15.0,30.03,NW,306,11.0,16.0,60,0.00,,,0.00,,2013-03-04 16:42:00,
2013-03-04 11:52:00,28.0,14.0,30.03,WNW,288,8.0,13.0,56,0.00,,,0.00,,2013-03-04 16:52:00,
2013-03-04 12:02:00,29.0,14.0,30.02,WNW,303,10.0,17.0,54,0.00,,,0.00,,2013-03-04 17:02:00,
2013-03-04 12:11:00,29.0,14.0,30.02,WNW,303,10.0,17.0,54,0.00,,,0.00,,2013-03-04 17:11:00,
2013-03-04 12:22:00,29.0,14.0,30.02,NW,310,6.0,17.0,54,0.00,,,0.00,,2013-03-04 17:22:00,
2013-03-04 12:32:00,31.0,17.0,30.02,West,271,7.0,15.0,55,0.00,,,0.00,,2013-03-04 17:32:00,
2013-03-04 12:42:00,31.0,17.0,30.02,West,271,7.0,15.0,55,0.00,,,0.00,,2013-03-04 17:42:00,
2013-03-04 12:52:00,31.0,16.0,30.01,NW,317,5.0,18.0,53,0.00,,,0.00,,2013-03-04 17:52:00,
2013-03-04 13:02:00,32.0,18.0,30.01,West,278,9.0,15.0,55,0.00,,,0.00,,2013-03-04 18:02:00,
2013-03-04 13:11:00,32.0,18.0,30.01,West,278,9.0,15.0,55,0.00,,,0.00,,2013-03-04 18:11:00,
2013-03-04 13:22:00,31.0,15.0,30.01,WNW,290,7.0,18.0,52,0.00,,,0.00,,2013-03-04 18:22:00,
2013-03-04 13:32:00,32.0,15.0,30.00,NW,313,8.0,16.0,49,0.00,,,0.00,,2013-03-04 18:32:00,
2013-03-04 13:42:00,32.0,15.0,30.00,NW,313,8.0,16.0,49,0.00,,,0.00,,2013-03-04 18:42:00,
2013-03-04 13:52:00,32.0,14.0,30.00,NW,312,10.0,17.0,47,0.00,,,0.00,,2013-03-04 18:52:00,
2013-03-04 14:02:00,34.0,15.0,29.98,West,266,10.0,15.0,45,0.00,,,0.00,,2013-03-04 19:02:00,
2013-03-04 14:12:00,34.0,15.0,29.98,West,266,10.0,15.0,45,0.00,,,0.00,,2013-03-04 19:12:00,
2013-03-04 14:22:00,34.0,16.0,29.98,West,273,8.0,14.0,47,0.00,,,0.00,,2013-03-04 19:22:00,
2013-03-04 14:32:00,34.0,15.0,29.98,West,280,7.0,17.0,46,0.00,,,0.00,,2013-03-04 19:32:00,
2013-03-04 14:42:00,34.0,15.0,29.98,West,280,7.0,17.0,46,0.00,,,0.00,,2013-03-04 19:42:00,
2013-03-04 14:52:00,35.0,15.0,29.98,WNW,299,9.0,16.0,43,0.00,,,0.00,,2013-03-04 19:52:00,
2013-03-04 15:02:00,35.0,15.0,29.98,West,280,4.0,12.0,44,0.00,,,0.00,,2013-03-04 20:02:00,
2013-03-04 15:12:00,35.0,15.0,29.98,West,280,4.0,12.0,44,0.00,,,0.00,,2013-03-04 20:12:00,
2013-03-04 15:22:00,36.0,15.0,29.98,WNW,283,7.0,11.0,41,0.00,,,0.00,,2013-03-04 20:22:00,
2013-03-04 15:32:00,36.0,17.0,29.98,West,274,3.0,13.0,45,0.00,,,0.00,,2013-03-04 20:32:00,
2013-03-04 15:42:00,36.0,17.0,29.98,West,274,3.0,13.0,45,0.00,,,0.00,,2013-03-04 20:42:00,
2013-03-04 15:53:00,36.0,16.0,29.97,WNW,288,7.0,12.0,44,0.00,,,0.00,,2013-03-04 20:53:00,
2013-03-04 16:02:00,36.0,15.0,29.97,WNW,298,5.0,13.0,41,0.00,,,0.00,,2013-03-04 21:02:00,
2013-03-04 16:12:00,36.0,15.0,29.97,WNW,298,5.0,13.0,41,0.00,,,0.00,,2013-03-04 21:12:00,
2013-03-04 16:22:00,36.0,15.0,29.96,WNW,302,6.0,13.0,42,0.00,,,0.00,,2013-03-04 21:22:00,
2013-03-04 16:32:00,37.0,14.0,29.96,WNW,299,8.0,13.0,38,0.00,,,0.00,,2013-03-04 21:32:00,
2013-03-04 16:42:00,37.0,14.0,29.96,WNW,299,8.0,13.0,38,0.00,,,0.00,,2013-03-04 21:42:00,
2013-03-04 16:53:00,37.0,14.0,29.96,WNW,297,7.0,14.0,39,0.00,,,0.00,,2013-03-04 21:53:00,
2013-03-04 17:02:00,37.0,16.0,29.96,NW,304,5.0,14.0,42,0.00,,,0.00,,2013-03-04 22:02:00,
2013-03-04 17:12:00,37.0,16.0,29.96,NW,304,5.0,14.0,42,0.00,,,0.00,,2013-03-04 22:12:00,
2013-03-04 17:22:00,37.0,14.0,29.97,WNW,291,5.0,14.0,39,0.00,,,0.00,,2013-03-04 22:22:00,
2013-03-04 17:32:00,37.0,14.0,29.97,WNW,290,9.0,12.0,38,0.00,,,0.00,,2013-03-04 22:32:00,
2013-03-04 17:42:00,37.0,14.0,29.97,WNW,290,9.0,12.0,38,0.00,,,0.00,,2013-03-04 22:42:00,
2013-03-04 17:52:00,36.0,13.0,30.00,NW,304,8.0,12.0,38,0.00,,,0.00,,2013-03-04 22:52:00,
2013-03-04 18:02:00,36.0,15.0,30.00,WNW,302,3.0,8.0,41,0.00,,,0.00,,2013-03-04 23:02:00,
2013-03-04 18:11:00,36.0,15.0,30.00,WNW,302,3.0,8.0,41,0.00,,,0.00,,2013-03-04 23:11:00,
2013-03-04 18:22:00,36.0,15.0,30.00,WNW,291,2.0,5.0,42,0.00,,,0.00,,2013-03-04 23:22:00,
2013-03-04 18:32:00,34.0,14.0,30.00,NW,323,1.0,3.0,44,0.00,,,0.00,,2013-03-04 23:32:00,
2013-03-04 18:42:00,34.0,14.0,30.00,NW,323,1.0,3.0,44,0.00,,,0.00,,2013-03-04 23:42:00,
2013-03-04 18:52:00,33.0,13.0,30.00,NW,323,1.0,2.0,44,0.00,,,0.00,,2013-03-04 23:52:00,
2013-03-04 19:02:00,32.0,15.0,30.00,NW,306,1.0,3.0,49,0.00,,,0.00,,2013-03-05 00:02:00,
2013-03-04 19:12:00,32.0,15.0,30.00,NW,306,1.0,3.0,49,0.00,,,0.00,,2013-03-05 00:12:00,
2013-03-04 19:22:00,30.0,16.0,30.01,NW,306,0.0,0.0,56,0.00,,,0.00,,2013-03-05 00:22:00,
2013-03-04 19:32:00,30.0,17.0,30.02,WNW,295,0.0,3.0,58,0.00,,,0.00,,2013-03-05 00:32:00,
2013-03-04 19:42:00,30.0,17.0,30.02,WNW,295,0.0,3.0,58,0.00,,,0.00,,2013-03-05 00:42:00,
2013-03-04 19:52:00,29.0,16.0,30.02,WNW,295,1.0,1.0,57,0.00,,,0.00,,2013-03-05 00:52:00,
2013-03-04 20:02:00,29.0,16.0,30.02,WNW,295,1.0,1.0,57,0.00,,,0.00,,2013-03-05 01:02:00,
2013-03-04 20:12:00,29.0,16.0,30.02,WNW,295,1.0,1.0,57,0.00,,,0.00,,2013-03-05 01:12:00,
2013-03-04 20:22:00,29.0,14.0,30.02,WNW,295,0.0,1.0,53,0.00,,,0.00,,2013-03-05 01:22:00,
2013-03-04 20:32:00,29.0,14.0,30.02,WNW,292,0.0,2.0,54,0.00,,,0.00,,2013-03-05 01:32:00,
2013-03-04 20:42:00,29.0,14.0,30.02,WNW,292,0.0,2.0,54,0.00,,,0.00,,2013-03-05 01:42:00,
2013-03-04 20:52:00,28.0,16.0,30.02,WNW,291,0.0,2.0,59,0.00,,,0.00,,2013-03-05 01:52:00,
2013-03-04 21:01:00,28.0,16.0,30.02,WNW,291,0.0,1.0,59,0.00,,,0.00,,2013-03-05 02:01:00,
2013-03-04 21:12:00,28.0,16.0,30.02,WNW,291,0.0,1.0,59,0.00,,,0.00,,2013-03-05 02:12:00,
2013-03-04 21:22:00,27.0,15.0,30.01,NW,306,0.0,1.0,60,0.00,,,0.00,,2013-03-05 02:22:00,
2013-03-04 21:32:00,26.0,16.0,30.01,NW,306,0.0,1.0,65,0.00,,,0.00,,2013-03-05 02:32:00,
2013-03-04 21:42:00,26.0,16.0,30.01,NW,306,0.0,1.0,65,0.00,,,0.00,,2013-03-05 02:42:00,
2013-03-04 21:53:00,25.0,15.0,30.02,NW,325,1.0,2.0,65,0.00,,,0.00,,2013-03-05 02:53:00,
2013-03-04 22:02:00,24.0,15.0,30.02,NW,324,0.0,0.0,69,0.00,,,0.00,,2013-03-05 03:02:00,
2013-03-04 22:12:00,24.0,15.0,30.02,NW,324,0.0,0.0,69,0.00,,,0.00,,2013-03-05 03:12:00,
2013-03-04 22:22:00,24.0,16.0,30.01,NW,324,0.0,0.0,72,0.00,,,0.00,,2013-03-05 03:22:00,
2013-03-04 22:32:00,23.0,16.0,30.01,NW,324,0.0,1.0,73,0.00,,,0.00,,2013-03-05 03:32:00,
2013-03-04 22:42:00,23.0,16.0,30.01,NW,324,0.0,1.0,73,0.00,,,0.00,,2013-03-05 03:42:00,
2013-03-04 22:52:00,23.0,17.0,30.01,NW,325,0.0,1.0,77,0.00,,,0.00,,2013-03-05 03:52:00,
2013-03-04 23:02:00,24.0,17.0,30.01,NW,311,0.0,2.0,75,0.00,,,0.00,,2013-03-05 04:02:00,
2013-03-04 23:12:00,24.0,17.0,30.01,NW,311,0.0,2.0,75,0.00,,,0.00,,2013-03-05 04:12:00,
2013-03-04 23:22:00,24.0,18.0,30.01,NW,311,0.0,1.0,76,0.00,,,0.00,,2013-03-05 04:22:00,
2013-03-04 23:32:00,24.0,18.0,30.00,NW,311,0.0,0.0,77,0.00,,,0.00,,2013-03-05 04:32:00,
2013-03-04 23:42:00,24.0,18.0,30.00,NW,311,0.0,0.0,77,0.00,,,0.00,,2013-03-05 04:42:00,
2013-03-04 23:52:00,25.0,18.0,30.00,NW,311,0.0,0.0,73,0.00,,,0.00,,2013-03-05 04:52:00,